When you browse on this site, cookies collect data to enhance your experience and personalize the content and advertising you see.
Visit our Privacy Policy to learn more. By continuing to use the site, you agree to this use of cookies and data.
  • In Lithuania
  • List of Countries
  • For 7 days
  • Water Temperature
  • Satellite Maps
  • Weather Map
  • Weather Widgets
  • user-avatar
    Login

    Hourly Weather Salzburg

    Today, 20 May, Monday

    Time Temperature Precipitation Wind Pressure Humidity
    00:00 +3°C° 0.1 mm 2 mps 616 mmHg 93%
    01:00 +3°C° 0.1 mm 2 mps 616 mmHg 93%
    02:00 +3°C° 0 mm 2 mps 616 mmHg 93%
    03:00 +3°C° 0 mm 1 mps 615 mmHg 93%
    04:00 +3°C° 0 mm 1 mps 615 mmHg 93%
    05:00 +4°C° 0 mm 1 mps 616 mmHg 90%
    06:00 +6°C° 0 mm 1 mps 616 mmHg 88%
    07:00 +6°C° 0 mm 0 mps 617 mmHg 85%
    08:00 +7°C° 0.5 mm 0 mps 617 mmHg 84%
    09:00 +8°C° 0.5 mm 1 mps 617 mmHg 84%
    10:00 +9°C° 0.5 mm 1 mps 618 mmHg 83%
    11:00 +9°C° 1 mm 1 mps 618 mmHg 85%
    12:00 +10°C° 1 mm 1 mps 618 mmHg 87%
    13:00 +10°C° 1 mm 1 mps 618 mmHg 88%
    14:00 +9°C° 1.7 mm 1 mps 618 mmHg 90%
    15:00 +9°C° 1.7 mm 1 mps 618 mmHg 91%
    16:00 +8°C° 1.7 mm 1 mps 618 mmHg 93%
    17:00 +8°C° 1.2 mm 1 mps 617 mmHg 94%
    18:00 +6°C° 1.2 mm 0 mps 617 mmHg 95%
    19:00 +5°C° 1.2 mm 0 mps 617 mmHg 96%
    20:00 +6°C° 1.1 mm 1 mps 617 mmHg 96%
    21:00 +5°C° 1.1 mm 1 mps 617 mmHg 97%
    22:00 +5°C° 1.1 mm 1 mps 618 mmHg 97%
    23:00 +5°C° 2.5 mm 1 mps 618 mmHg 97%

    Tomorrow, 21 May, Tuesday

    Time Temperature Precipitation Wind Pressure Humidity
    00:00 +5°C° 2.5 mm 1 mps 618 mmHg 97%
    01:00 +5°C° 2.5 mm 1 mps 618 mmHg 97%
    02:00 +4°C° 3.2 mm 1 mps 618 mmHg 97%
    03:00 +4°C° 3.2 mm 1 mps 618 mmHg 97%
    04:00 +4°C° 3.2 mm 1 mps 618 mmHg 97%
    05:00 +4°C° 2.6 mm 1 mps 618 mmHg 97%
    06:00 +4°C° 2.6 mm 1 mps 619 mmHg 97%
    07:00 +4°C° 2.6 mm 1 mps 619 mmHg 96%
    08:00 +4°C° 1.8 mm 1 mps 619 mmHg 96%
    09:00 +5°C° 1.8 mm 1 mps 620 mmHg 95%
    10:00 +5°C° 1.8 mm 1 mps 620 mmHg 95%
    11:00 +5°C° 1.2 mm 1 mps 620 mmHg 94%
    12:00 +5°C° 1.2 mm 1 mps 621 mmHg 94%
    13:00 +6°C° 1.2 mm 1 mps 621 mmHg 94%
    14:00 +6°C° 0.9 mm 1 mps 621 mmHg 92%
    15:00 +6°C° 0.9 mm 1 mps 621 mmHg 90%
    16:00 +5°C° 0.9 mm 2 mps 622 mmHg 89%
    17:00 +6°C° 0.7 mm 1 mps 622 mmHg 90%
    18:00 +5°C° 0.7 mm 1 mps 622 mmHg 92%
    19:00 +5°C° 0.7 mm 1 mps 622 mmHg 93%
    20:00 +5°C° 1 mm 1 mps 622 mmHg 93%
    21:00 +4°C° 1 mm 1 mps 623 mmHg 93%
    22:00 +4°C° 1 mm 1 mps 623 mmHg 93%
    23:00 +4°C° 0.8 mm 1 mps 623 mmHg 93%

    Day after tomorrow, 22 May, Wednesday

    Time Temperature Precipitation Wind Pressure Humidity
    00:00 +4°C° 0.8 mm 1 mps 623 mmHg 93%
    01:00 +4°C° 0.8 mm 1 mps 623 mmHg 93%
    02:00 +4°C° 0.2 mm 1 mps 623 mmHg 93%
    03:00 +4°C° 0.2 mm 1 mps 623 mmHg 94%
    04:00 +4°C° 0.2 mm 1 mps 623 mmHg 94%
    05:00 +4°C° 0.2 mm 1 mps 624 mmHg 94%
    06:00 +5°C° 0.2 mm 1 mps 624 mmHg 93%
    07:00 +5°C° 0.2 mm 1 mps 624 mmHg 93%
    08:00 +6°C° 0.5 mm 1 mps 624 mmHg 91%
    09:00 +6°C° 0.5 mm 1 mps 625 mmHg 90%
    10:00 +6°C° 0.5 mm 1 mps 625 mmHg 89%
    11:00 +7°C° 0.7 mm 1 mps 625 mmHg 88%
    12:00 +7°C° 0.7 mm 1 mps 625 mmHg 86%
    13:00 +6°C° 0.7 mm 2 mps 625 mmHg 85%
    14:00 +8°C° 0.1 mm 1 mps 626 mmHg 83%
    15:00 +9°C° 0.1 mm 1 mps 626 mmHg 81%
    16:00 +9°C° 0.1 mm 1 mps 626 mmHg 78%
    17:00 +8°C° 0.4 mm 1 mps 626 mmHg 84%
    18:00 +7°C° 0.4 mm 1 mps 626 mmHg 89%
    19:00 +6°C° 0.4 mm 1 mps 626 mmHg 94%
    20:00 +6°C° 1.1 mm 1 mps 626 mmHg 95%
    21:00 +6°C° 1.1 mm 1 mps 627 mmHg 97%
    22:00 +5°C° 1.1 mm 1 mps 627 mmHg 98%
    23:00 +5°C° 0.7 mm 1 mps 627 mmHg 98%

    23 May, Thursday

    Time Temperature Precipitation Wind Pressure Humidity
    00:00 +5°C° 0.7 mm 1 mps 627 mmHg 98%
    01:00 +5°C° 0.7 mm 1 mps 627 mmHg 98%
    02:00 +5°C° 0.4 mm 1 mps 627 mmHg 98%
    03:00 +3°C° 0.4 mm 0 mps 626 mmHg 98%
    04:00 +3°C° 0.4 mm 0 mps 626 mmHg 98%
    05:00 +5°C° 0.4 mm 1 mps 626 mmHg 97%
    06:00 +5°C° 0.4 mm 1 mps 627 mmHg 96%
    07:00 +5°C° 0.4 mm 1 mps 627 mmHg 95%
    08:00 +6°C° 0.3 mm 1 mps 627 mmHg 92%
    09:00 +7°C° 0.3 mm 1 mps 627 mmHg 89%
    10:00 +7°C° 0.3 mm 1 mps 627 mmHg 86%
    11:00 +8°C° 0.1 mm 1 mps 627 mmHg 82%
    12:00 +9°C° 0.1 mm 1 mps 627 mmHg 78%
    13:00 +10°C° 0.1 mm 1 mps 628 mmHg 73%
    14:00 +10°C° 0.1 mm 1 mps 627 mmHg 71%
    15:00 +10°C° 0.1 mm 1 mps 627 mmHg 69%
    16:00 +9°C° 0.1 mm 2 mps 627 mmHg 66%
    17:00 +9°C° 0 mm 1 mps 627 mmHg 73%
    18:00 +8°C° 0 mm 1 mps 627 mmHg 79%
    19:00 +7°C° 0 mm 1 mps 627 mmHg 85%
    20:00 +6°C° 0 mm 1 mps 626 mmHg 88%
    21:00 +5°C° 0 mm 1 mps 626 mmHg 91%
    22:00 +3°C° 0 mm 1 mps 626 mmHg 95%
    23:00 +3°C° 0 mm 1 mps 626 mmHg 95%

    24 May, Friday

    Time Temperature Precipitation Wind Pressure Humidity
    00:00 +3°C° 0 mm 1 mps 626 mmHg 95%
    01:00 +2°C° 0 mm 1 mps 626 mmHg 95%
    02:00 +2°C° 0 mm 1 mps 625 mmHg 95%
    03:00 +2°C° 0 mm 1 mps 625 mmHg 94%
    04:00 +1°C° 0 mm 1 mps 625 mmHg 93%
    05:00 +3°C° 0 mm 1 mps 625 mmHg 85%
    06:00 +6°C° 0 mm 1 mps 626 mmHg 77%
    07:00 +7°C° 0 mm 0 mps 627 mmHg 69%
    08:00 +10°C° 0 mm 1 mps 627 mmHg 60%
    09:00 +12°C° 0 mm 1 mps 628 mmHg 50%
    10:00 +14°C° 0 mm 1 mps 628 mmHg 41%
    11:00 +15°C° 0 mm 1 mps 628 mmHg 40%
    12:00 +15°C° 0 mm 1 mps 628 mmHg 38%
    13:00 +16°C° 0 mm 1 mps 627 mmHg 37%
    14:00 +16°C° 0 mm 2 mps 627 mmHg 40%
    15:00 +15°C° 0 mm 2 mps 626 mmHg 44%
    16:00 +15°C° 0 mm 2 mps 626 mmHg 47%
    17:00 +13°C° 0 mm 2 mps 625 mmHg 58%
    18:00 +11°C° 0 mm 1 mps 624 mmHg 69%
    19:00 +10°C° 0 mm 1 mps 623 mmHg 80%
    20:00 +8°C° 0.1 mm 1 mps 623 mmHg 84%
    21:00 +7°C° 0.1 mm 1 mps 623 mmHg 89%
    22:00 +6°C° 0.1 mm 1 mps 622 mmHg 94%
    23:00 +6°C° 0.3 mm 1 mps 622 mmHg 93%

    25 May, Saturday

    Time Temperature Precipitation Wind Pressure Humidity
    00:00 +6°C° 0.3 mm 1 mps 622 mmHg 92%
    01:00 +6°C° 0.3 mm 1 mps 621 mmHg 92%
    02:00 +6°C° 1.8 mm 1 mps 621 mmHg 93%
    03:00 +5°C° 1.8 mm 0 mps 621 mmHg 95%
    04:00 +5°C° 1.8 mm 0 mps 621 mmHg 96%
    05:00 +6°C° 4.6 mm 1 mps 621 mmHg 97%
    06:00 +5°C° 4.6 mm 1 mps 621 mmHg 98%
    07:00 +5°C° 4.6 mm 1 mps 621 mmHg 98%
    08:00 +5°C° 2.1 mm 1 mps 622 mmHg 98%
    09:00 +5°C° 2.1 mm 1 mps 622 mmHg 97%
    10:00 +5°C° 2.1 mm 1 mps 622 mmHg 97%
    11:00 +5°C° 0.4 mm 1 mps 623 mmHg 94%
    12:00 +6°C° 0.4 mm 1 mps 623 mmHg 91%
    13:00 +7°C° 0.4 mm 1 mps 623 mmHg 89%
    14:00 +7°C° 0.1 mm 1 mps 624 mmHg 86%
    15:00 +7°C° 0.1 mm 1 mps 624 mmHg 84%
    16:00 +8°C° 0.1 mm 1 mps 624 mmHg 82%
    17:00 +7°C° 0 mm 1 mps 624 mmHg 85%
    18:00 +7°C° 0 mm 1 mps 624 mmHg 88%
    19:00 +6°C° 0 mm 1 mps 624 mmHg 91%
    20:00 +5°C° 0 mm 1 mps 624 mmHg 93%
    21:00 +5°C° 0 mm 1 mps 625 mmHg 95%
    22:00 +4°C° 0 mm 1 mps 625 mmHg 97%
    23:00 +3°C° 0 mm 1 mps 625 mmHg 97%
    Show more